FW7922 Weather Reports


Display with metric or nautical units.
time (UTC)temp
F
wind
direction
speed
MPH
gust
MPH
rain 1hr
in
rain 24hr
in
rain mn
in
humidity
%
barometer
mb
20260507132018 54 350 1.0 4.0 0.00 0.14 0.00 72 1007.7
20260507131018 53 3 1.0 4.0 0.00 0.14 0.00 73 1007.8
20260507130018 53 350 2.0 5.0 0.00 0.14 0.00 74 1007.9
20260507125038 53 18 1.0 4.0 0.00 0.14 0.00 76 1007.9
20260507124021 52 0 1.0 4.0 0.00 0.14 0.00 76 1007.9
20260507123018 52 357 1.0 4.0 0.00 0.14 0.00 77 1007.9
20260507122027 51 305 0.0 2.0 0.00 0.14 0.00 81 1008.1
20260507121029 51 342 1.0 3.0 0.00 0.14 0.00 83 1008.0
20260507120108 50 347 1.0 3.0 0.00 0.14 0.00 83 1008.1
20260507115029 50 354 1.0 2.0 0.00 0.14 0.00 86 1008.0
20260507114028 49 351 1.0 3.0 0.00 0.14 0.00 88 1007.9
20260507113049 49 9 1.0 2.0 0.00 0.14 0.00 88 1007.8
20260507112028 48 46 0.0 1.0 0.00 0.14 0.00 89 1007.9
20260507111028 48 359 0.0 2.0 0.00 0.14 0.00 90 1007.8
20260507110029 48 356 0.0 0.0 0.00 0.14 0.00 90 1007.8
20260507105049 48 0.0 0.0 0.00 0.14 0.00 90 1007.7
20260507104029 48 140 0.0 1.0 0.00 0.14 0.00 90 1007.7
20260507103033 48 355 0.0 1.0 0.00 0.14 0.00 90 1007.4
20260507102031 48 1 0.0 2.0 0.00 0.14 0.00 91 1007.2
20260507101030 48 7 0.0 1.0 0.00 0.14 0.00 91 1007.3
20260507100030 48 355 1.0 3.0 0.00 0.14 0.00 91 1007.1
20260507095031 48 4 0.0 2.0 0.00 0.14 0.00 92 1007.2
20260507094031 48 11 0.0 2.0 0.00 0.14 0.00 92 1007.2
20260507093030 48 5 0.0 2.0 0.00 0.14 0.00 93 1007.6
20260507092032 48 3 1.0 2.0 0.00 0.14 0.00 93 1007.4
20260507091030 48 325 0.0 1.0 0.00 0.14 0.00 93 1007.7
20260507090031 48 359 1.0 2.0 0.00 0.14 0.00 92 1007.7
20260507085031 48 328 0.0 1.0 0.00 0.14 0.00 91 1008.0
20260507084031 48 352 1.0 2.0 0.00 0.14 0.00 91 1007.6
20260507083031 48 353 1.0 3.0 0.00 0.14 0.00 91 1007.7
20260507082017 48 354 0.0 2.0 0.00 0.14 0.00 91 1007.4
20260507081017 48 359 0.0 2.0 0.00 0.14 0.00 90 1007.5
20260507080031 48 0.0 0.0 0.00 0.14 0.00 89 1007.5
20260507075032 49 4 1.0 2.0 0.00 0.14 0.00 89 1007.2
20260507074032 49 11 1.0 4.0 0.00 0.14 0.00 89 1007.3
20260507073053 49 359 1.0 3.0 0.00 0.14 0.00 88 1007.4
20260507072032 49 357 0.0 2.0 0.00 0.14 0.00 88 1007.3
20260507071018 49 358 1.0 3.0 0.00 0.14 0.00 88 1006.9
20260507070017 50 335 0.0 1.0 0.00 0.14 0.00 90 1006.8
20260507065018 50 16 0.0 2.0 0.00 0.14 0.00 91 1006.8
20260507064019 50 4 0.0 1.0 0.00 0.14 0.00 90 1006.7
20260507063019 50 26 0.0 1.0 0.00 0.14 0.00 90 1006.7
20260507062019 50 10 1.0 2.0 0.00 0.14 0.00 91 1007.0
20260507061019 50 229 0.0 1.0 0.00 0.14 0.00 92 1006.8
20260507060037 50 17 0.0 0.0 0.00 0.14 0.00 92 1006.9
20260507055017 50 346 0.0 2.0 0.00 0.14 0.00 91 1007.0
20260507054018 51 351 0.0 1.0 0.00 0.14 0.00 91 1007.2
20260507053019 51 344 1.0 3.0 0.00 0.14 0.00 91 1007.4
20260507052019 51 71 0.0 1.0 0.00 0.14 0.00 93 1007.6
20260507051019 51 126 0.0 1.0 0.00 0.14 0.00 94 1007.2
20260507050018 52 93 0.0 2.0 0.00 0.14 0.00 93 1007.5
20260507045018 52 43 0.0 1.0 0.00 0.14 0.00 93 1007.3
20260507044039 52 354 0.0 2.0 0.00 0.14 0.00 93 1007.1
20260507043019 53 339 1.0 2.0 0.01 0.14 0.00 94 1007.0
20260507042019 54 3 1.0 3.0 0.01 0.14 0.00 98 1007.0
20260507041019 54 0.0 0.0 0.01 0.14 0.00 98 1007.0
20260507040019 54 0.0 0.0 0.01 0.14 0.00 97 1007.1
20260507035019 55 0.0 0.0 0.01 0.14 0.14 97 1007.1
20260507034040 55 0.0 0.0 0.01 0.14 0.14 96 1006.8
20260507033020 55 19 1.0 2.0 0.00 0.13 0.13 94 1007.0
20260507032020 56 358 0.0 1.0 0.00 0.13 0.13 94 1006.7
20260507031040 56 351 0.0 1.0 0.00 0.13 0.13 96 1006.5
20260507030020 57 143 0.0 2.0 0.00 0.13 0.13 97 1006.2
20260507025021 57 0.0 0.0 0.00 0.13 0.13 97 1006.0
20260507024021 57 1 1.0 3.0 0.00 0.13 0.13 96 1005.9
20260507023101 58 347 2.0 5.0 0.00 0.13 0.13 98 1006.1
20260507022021 59 341 1.0 3.0 0.00 0.13 0.13 100 1006.0
20260507021021 59 148 0.0 1.0 0.00 0.13 0.13 99 1005.9
20260507020022 59 0.0 0.0 0.00 0.13 0.13 99 1005.6
20260507015022 59 139 0.0 1.0 0.00 0.13 0.13 99 1005.4
20260507014021 58 0.0 0.0 0.00 0.13 0.13 99 1005.6
20260507013019 58 131 0.0 0.0 0.00 0.13 0.13 99 1005.5
20260507012019 58 135 0.0 2.0 0.00 0.13 0.13 99 1005.5
20260507011020 58 0.0 0.0 0.00 0.13 0.13 99 1005.6
20260507010020 58 132 0.0 1.0 0.00 0.13 0.13 99 1005.6
20260507005020 58 148 0.0 2.0 0.00 0.13 0.13 99 1005.5
20260507004018 58 178 0.0 4.0 0.00 0.13 0.13 99 1005.5
20260507003017 58 138 0.0 1.0 0.00 0.13 0.13 99 1005.4
20260507002018 58 144 0.0 2.0 0.00 0.13 0.13 99 1005.3
20260507001019 58 336 0.0 4.0 0.00 0.13 0.13 99 1005.3
20260507000039 58 123 0.0 1.0 0.00 0.13 0.13 100 1005.2
20260506235018 58 122 0.0 1.0 0.01 0.13 0.13 100 1005.2
20260506234018 58 132 0.0 2.0 0.01 0.13 0.13 100 1005.1
20260506233039 58 141 1.0 2.0 0.02 0.13 0.13 100 1005.1
20260506232041 58 0.0 0.0 0.02 0.13 0.13 100 1005.1
20260506231019 58 121 1.0 2.0 0.03 0.13 0.13 100 1005.1
20260506230019 58 122 0.0 1.0 0.04 0.13 0.13 100 1005.0
20260506225019 58 0.0 0.0 0.04 0.12 0.12 99 1005.1
20260506224057 58 106 0.0 1.0 0.05 0.12 0.12 99 1005.2
20260506223016 59 116 0.0 1.0 0.05 0.11 0.11 99 1005.2
20260506222019 59 115 0.0 1.0 0.05 0.11 0.11 99 1005.2
20260506221020 59 80 0.0 2.0 0.04 0.10 0.10 99 1005.3
20260506220020 59 169 0.0 2.0 0.03 0.09 0.09 98 1005.5
20260506215020 59 135 0.0 2.0 0.03 0.08 0.08 98 1005.5
20260506214017 59 133 1.0 3.0 0.02 0.07 0.07 98 1005.5
20260506213017 59 154 0.0 3.0 0.01 0.06 0.06 97 1005.5
20260506212021 59 120 0.0 2.0 0.00 0.06 0.06 97 1005.5
20260506211022 60 143 1.0 3.0 0.01 0.06 0.06 96 1005.7
20260506210021 60 152 0.0 3.0 0.01 0.06 0.06 97 1005.8
20260506205039 60 156 0.0 3.0 0.01 0.06 0.06 96 1005.8
20260506204018 59 145 1.0 2.0 0.01 0.05 0.05 96 1005.9
20260506203018 60 152 0.0 2.0 0.01 0.05 0.05 96 1006.0
20260506202019 60 153 1.0 4.0 0.01 0.05 0.05 96 1006.0
20260506201019 60 168 1.0 4.0 0.01 0.05 0.05 95 1006.1
20260506200039 61 155 0.0 3.0 0.01 0.05 0.05 95 1006.0
20260506195039 61 131 0.0 3.0 0.01 0.05 0.05 94 1006.2
20260506194019 61 157 0.0 2.0 0.01 0.05 0.05 94 1006.3
20260506193040 62 355 0.0 3.0 0.01 0.04 0.04 93 1006.2
20260506192020 62 151 0.0 3.0 0.02 0.04 0.04 94 1006.1
20260506191017 62 136 0.0 3.0 0.02 0.04 0.04 95 1006.2
20260506190018 62 0.0 0.0 0.03 0.04 0.04 94 1006.1
20260506185020 62 131 0.0 2.0 0.04 0.04 0.04 93 1006.2
20260506184020 62 165 1.0 3.0 0.04 0.04 0.04 92 1006.3
20260506183020 63 164 0.0 2.0 0.03 0.03 0.03 90 1006.5
20260506182019 63 0 0.0 2.0 0.03 0.03 0.03 89 1006.6
20260506181038 65 350 0.0 2.0 0.02 0.02 0.02 86 1006.8
20260506175018 69 345 1.0 5.0 0.00 0.00 0.00 73 1006.7
20260506174018 70 343 1.0 3.0 0.00 0.00 0.00 69 1006.5
20260506173018 70 341 0.0 5.0 0.00 0.00 0.00 65 1006.4
20260506172018 70 299 2.0 5.0 0.00 0.00 0.00 64 1006.3
20260506171019 71 241 1.0 4.0 0.00 0.00 0.00 63 1006.4
20260506170020 72 183 1.0 4.0 0.00 0.00 0.00 61 1006.4
20260506165019 72 176 1.0 5.0 0.00 0.00 0.00 61 1006.5
20260506164019 71 9 1.0 4.0 0.00 0.00 0.00 62 1006.6
20260506163019 71 325 1.0 4.0 0.00 0.00 0.00 63 1006.8
20260506162020 71 168 1.0 5.0 0.00 0.00 0.00 63 1007.1
20260506161020 71 52 1.0 6.0 0.00 0.00 0.00 63 1007.2
20260506160100 70 349 0.0 4.0 0.00 0.00 0.00 64 1007.4
20260506155017 70 345 1.0 8.0 0.00 0.00 0.00 64 1007.6
20260506154037 70 272 1.0 4.0 0.00 0.00 0.00 64 1007.6
20260506153017 70 330 1.0 4.0 0.00 0.00 0.00 65 1007.7
20260506152018 69 160 1.0 3.0 0.00 0.00 0.00 67 1007.9
20260506151022 69 178 1.0 3.0 0.00 0.00 0.00 67 1008.1
20260506150021 69 145 1.0 5.0 0.00 0.00 0.00 68 1008.3
20260506145018 69 97 0.0 3.0 0.00 0.00 0.00 68 1008.1
20260506144018 69 347 1.0 3.0 0.00 0.00 0.00 69 1008.4
20260506143040 68 175 0.0 2.0 0.00 0.00 0.00 70 1008.3
20260506142019 68 170 0.0 2.0 0.00 0.00 0.00 71 1008.2
20260506141018 68 166 1.0 3.0 0.00 0.00 0.00 72 1008.1
20260506140019 67 151 1.0 4.0 0.00 0.00 0.00 72 1008.0
20260506135019 67 172 1.0 4.0 0.00 0.00 0.00 72 1008.1
20260506134020 67 160 1.0 3.0 0.00 0.00 0.00 72 1008.2
20260506133020 67 3 0.0 3.0 0.00 0.00 0.00 72 1008.3